Regional Weather Roundup
Issued by NWS

Home | Current Version | Previous Version | Text Only | Print | Product List | Glossary Off
Versions: 1 2 3 4 5 6 7 8 9 10 11 12 13 14 15 16 17 18 19 20 21 22 23 24 25 26 27

000
ASUS45 KCYS 220410
RWRWY

WYOMING REGIONAL WEATHER ROUNDUP
NATIONAL WEATHER SERVICE CHEYENNE WY
1000 PM MDT FRI APR 21 2017

NOTE:  "FAIR" INDICATES FEW OR NO CLOUDS BELOW 12,000 FEET
WITH NO SIGNIFICANT WEATHER AND/OR OBSTRUCTIONS TO VISIBILITY.

WYZ001-220500-
YELLOWSTONE NATIONAL PARK

CITY           SKY/WX    TMP DP  RH WIND       PRES   REMARKS
LK YELLOWSTONE   N/A     28  23  81 CALM      30.25R
W YELLOWSTONE  NOT AVBL

$$
WYZ002>013-054>058-071-098>099-220500-
NORTHERN WYOMING

CITY           SKY/WX    TMP DP  RH WIND       PRES   REMARKS
JACKSON        CLOUDY    36  28  75 N7        30.23R WCI  30
CODY           MIX PCPN  37  34  89 N16       30.24R WCI  28
GREYBULL       CLOUDY    42  37  82 NW18      30.17R
WORLAND        LGT RAIN  40  39  97 NW8       30.19R WCI  34
SHERIDAN       LGT RAIN  41  39  93 NW9       30.22R
BUFFALO        RAIN      39  36  89 N12G25    30.22R WCI  32
GILLETTE       CLOUDY    44  40  85 NE3       30.19R
HULETT         CLOUDY    45  41  87 CALM      30.21R
NEWCASTLE      MOCLDY    43  37  81 S6        30.21R

$$
WYZ014>020-022>026-101>103-220500-
CENTRAL WYOMING

CITY           SKY/WX    TMP DP  RH WIND       PRES   REMARKS
BIG PINEY      FAIR      32  21  64 NW15      30.20R WCI  22
PINEDALE       FAIR      32  23  69 NW14      30.19R WCI  22
DUBOIS         FAIR      32  21  64 W14       30.17R WCI  22
LANDER         FLURRIES  34  33  96 S3        30.20R
RIVERTON       CLOUDY    37  33  85 N13       30.19R WCI  29
CASPER         CLOUDY    38  36  92 SW13      30.13R WCI  30
DOUGLAS        LGT RAIN  40  37  89 SE16      30.16R WCI  31

$$
WYZ021-027>030-104>119-220500-
SOUTHERN WYOMING

CITY           SKY/WX    TMP DP  RH WIND       PRES   REMARKS
EVANSTON       FAIR      30  23  75 W7        30.24R WCI  23
KEMMERER         N/A     32  23  69 NW13G18   30.23R WCI  22
FORT BRIDGER   FAIR      32  24  72 W12       30.27R WCI  23
ROCK SPRINGS   LGT SNOW  36  27  69 W16       30.19R WCI  26
DIXON            N/A     35  22  60 CALM      30.21R
RAWLINS        FAIR      33  30  88 SW6       30.17R WCI  28
SARATOGA       FAIR      32  32 100 CALM      30.18S
LARAMIE        CLOUDY    33  29  85 SE8       30.17R WCI  26
CHEYENNE       LGT RAIN  34  33  96 S10       30.20R WCI  26
TORRINGTON     CLOUDY    43  40  89 S3        30.20R
PINE BLUFFS    CLOUDY    36  36 100 S5        30.22S WCI  32

$$




USA.gov is the U.S. government's official web portal to all federal, state and local government web resources and services.